User: anonymous   Login
Location: Unspecified
(48.8656°N, 0.0000°E)
Time: 21:50:48
(UTC+00:00)
Language:

A-11 Canister half - Orbit

View from above orbital plane
View from above orbital plane
View from above satellite
View from above satellite

Ground track
Ground track

The orbit data is extracted from the following two-line orbital elements,

1    51U 60009C   19174.78188941 -.00000035  00000-0  48198-3 0  9991
2    51  47.2151  20.1511 0105619 172.8167 187.4161 12.18272581620230
Epoch (UTC): 23 June 2019 18:45:55
Eccentricity: 0.0105619
inclination: 47.2151°
perigee height: 1516 km
apogee height: 1684 km
right ascension of ascending node: 20.1511°
argument of perigee: 172.8167°
revolutions per day: 12.18272581
mean anomaly at epoch: 187.4161°
orbit number at epoch: 62023

The dashed part of the orbit path shows where the satellite is in the earth's shadow,  

DLR